FW7766 Weather Reports


Display with metric or nautical units.
time (UTC)temp
F
wind
direction
speed
MPH
gust
MPH
rain 1hr
in
rain 24hr
in
rain mn
in
humidity
%
barometer
mb
20260904234111 85 90 1.0 3.0 0.00 0.00 0.00 49 1015.5
20260904233108 85 0 1.0 2.0 0.00 0.00 0.00 50 1015.6
20260904232105 87 60 1.0 3.0 0.00 0.00 0.00 52 1015.4
20260904231101 88 14 1.0 2.0 0.00 0.00 0.00 49 1015.4
20260904230058 87 357 1.0 3.0 0.00 0.00 0.00 50 1015.6
20260904225054 87 90 0.0 1.0 0.00 0.00 0.00 49 1015.3
20260904224051 87 0.0 0.0 0.00 0.00 0.00 48 1015.1
20260904223048 87 0.0 0.0 0.00 0.00 0.00 48 1015.1
20260904222104 87 0.0 0.0 0.00 0.00 0.00 47 1015.1
20260904221101 87 32 1.0 3.0 0.00 0.00 0.00 49 1015.3
20260904220057 88 27 1.0 3.0 0.00 0.00 0.00 49 1015.2
20260904215054 88 0.0 0.0 0.00 0.00 0.00 48 1015.3
20260904214030 87 270 0.0 1.0 0.00 0.00 0.00 48 1015.3
20260904213107 86 284 2.0 3.0 0.00 0.00 0.00 49 1015.1
20260904212023 86 270 0.0 1.0 0.00 0.00 0.00 48 1015.1
20260904211020 87 264 2.0 4.0 0.00 0.00 0.00 48 1015.1
20260904210017 89 264 6.0 9.0 0.00 0.00 0.00 47 1015.1
20260904205134 91 270 0.0 1.0 0.00 0.00 0.00 45 1014.8
20260904204150 91 270 0.0 2.0 0.00 0.00 0.00 44 1014.6
20260904203107 92 270 1.0 3.0 0.00 0.00 0.00 36 1014.7
20260904202103 93 0.0 0.0 0.00 0.00 0.00 38 1014.5
20260904201100 94 270 1.0 4.0 0.00 0.00 0.00 39 1014.7
20260904200057 95 270 1.0 3.0 0.00 0.00 0.00 40 1014.8
20260904195113 95 270 1.0 2.0 0.00 0.00 0.00 39 1014.7
20260904194049 95 262 2.0 4.0 0.00 0.00 0.00 39 1014.9
20260904193106 95 56 1.0 3.0 0.00 0.00 0.00 39 1015.2
20260904192042 95 270 1.0 3.0 0.00 0.00 0.00 39 1015.3
20260904191039 95 3 1.0 3.0 0.00 0.00 0.00 39 1015.5
20260904190036 95 270 0.0 1.0 0.00 0.00 0.00 39 1015.8
20260904185032 95 270 1.0 2.0 0.00 0.00 0.00 40 1016.0
20260904184029 95 270 0.0 1.0 0.00 0.00 0.00 40 1016.1
20260904183025 96 90 1.0 2.0 0.00 0.00 0.00 40 1016.2
20260904182022 95 270 1.0 3.0 0.00 0.00 0.00 39 1016.3
20260904181057 95 243 0.0 2.0 0.00 0.00 0.00 39 1016.5
20260904180134 96 45 1.0 2.0 0.00 0.00 0.00 40 1016.7
20260904175111 96 345 2.0 3.0 0.00 0.00 0.00 44 1016.7
20260904174108 95 310 1.0 2.0 0.00 0.00 0.00 40 1016.8
20260904173104 96 0.0 0.0 0.00 0.00 0.00 39 1016.9
20260904172101 96 315 1.0 2.0 0.00 0.00 0.00 39 1016.9
20260904171058 94 270 2.0 3.0 0.00 0.00 0.00 39 1017.0
20260904170114 94 90 1.0 3.0 0.00 0.00 0.00 39 1017.1
20260904165051 94 347 2.0 3.0 0.00 0.00 0.00 39 1017.3
20260904164107 95 45 1.0 2.0 0.00 0.00 0.00 38 1017.3
20260904163224 96 22 1.0 2.0 0.00 0.00 0.00 39 1017.5
20260904162041 95 153 1.0 2.0 0.00 0.00 0.00 37 1017.8
20260904161037 95 0.0 1.0 0.00 0.00 0.00 44 1017.7
20260904160033 93 0.0 0.0 0.00 0.00 0.00 45 1017.7
20260904155030 90 0.0 0.0 0.00 0.00 0.00 50 1017.7
20260904154027 89 0 0.0 2.0 0.00 0.00 0.00 51 1017.9
20260904153023 87 0.0 0.0 0.00 0.00 0.00 52 1017.8
20260904152019 87 0.0 0.0 0.00 0.00 0.00 55 1017.8
20260904151016 86 270 0.0 1.0 0.00 0.00 0.00 55 1017.9
20260904150113 85 0.0 0.0 0.00 0.00 0.00 55 1017.9
20260904145109 84 270 0.0 1.0 0.00 0.00 0.00 56 1018.1
20260904144106 84 326 1.0 2.0 0.00 0.00 0.00 56 1018.1
20260904143102 83 0 0.0 1.0 0.00 0.00 0.00 56 1018.1
20260904142059 82 0.0 1.0 0.00 0.00 0.00 58 1018.0
20260904141055 81 0.0 0.0 0.00 0.00 0.00 60 1018.0
20260904140112 80 0 1.0 2.0 0.00 0.00 0.00 60 1018.0
20260904135049 79 0.0 0.0 0.00 0.00 0.00 62 1018.0
20260904134045 78 326 1.0 2.0 0.00 0.00 0.00 63 1017.9
20260904133042 77 0.0 0.0 0.00 0.00 0.00 68 1017.9
20260904132039 76 0.0 0.0 0.00 0.00 0.00 75 1018.0
20260904131035 76 0.0 0.0 0.00 0.00 0.00 82 1018.1
20260904130052 75 0.0 0.0 0.00 0.00 0.00 86 1018.3
20260904125028 74 0.0 0.0 0.00 0.00 0.00 87 1018.2
20260904124025 74 0.0 0.0 0.00 0.00 0.00 87 1018.2
20260904123019 74 0.0 0.0 0.00 0.00 0.00 88 1018.2
20260904122016 73 0.0 0.0 0.00 0.00 0.00 86 1018.0
20260904121133 72 0.0 0.0 0.00 0.00 0.00 88 1018.1
20260904120109 72 0.0 0.0 0.00 0.00 0.00 88 1018.1
20260904115106 72 0.0 0.0 0.00 0.00 0.00 86 1018.0
20260904114143 72 0.0 0.0 0.00 0.00 0.00 85 1017.9
20260904113119 72 0.0 0.0 0.00 0.00 0.00 83 1017.8
20260904112055 72 0.0 0.0 0.00 0.00 0.00 82 1017.6
20260904111052 72 0.0 0.0 0.00 0.00 0.00 84 1017.6
20260904110048 72 0.0 0.0 0.00 0.00 0.00 85 1017.5
20260904105045 73 0.0 0.0 0.00 0.00 0.00 81 1017.3
20260904104042 73 0.0 0.0 0.00 0.00 0.00 80 1017.3
20260904103038 73 0.0 0.0 0.00 0.00 0.00 79 1017.3
20260904102035 73 0.0 0.0 0.00 0.00 0.00 78 1017.4
20260904101032 73 0.0 0.0 0.00 0.00 0.00 79 1017.4
20260904100028 73 0.0 0.0 0.00 0.00 0.00 78 1017.4
20260904095025 73 0.0 0.0 0.00 0.00 0.00 77 1017.4
20260904094021 73 0.0 0.0 0.00 0.00 0.00 78 1017.3
20260904093018 73 0.0 0.0 0.00 0.00 0.00 76 1017.3
20260904092115 73 0.0 0.0 0.00 0.00 0.00 70 1017.1
20260904091151 74 0.0 0.0 0.00 0.00 0.00 77 1016.9
20260904090108 74 0.0 0.0 0.00 0.00 0.00 80 1016.8
20260904085105 74 0.0 0.0 0.00 0.00 0.00 82 1016.7
20260904084101 74 0.0 0.0 0.00 0.00 0.00 83 1016.6
20260904083058 74 0.0 0.0 0.00 0.00 0.00 84 1016.5
20260904082054 74 0.0 0.0 0.00 0.00 0.00 81 1016.3
20260904081111 74 0.0 0.0 0.00 0.00 0.00 76 1016.3
20260904080047 74 0.0 0.0 0.00 0.00 0.00 76 1016.5
20260904075104 74 0.0 0.0 0.00 0.00 0.00 75 1016.6
20260904074041 74 0.0 0.0 0.00 0.00 0.00 75 1016.6
20260904073037 74 0.0 0.0 0.00 0.00 0.00 74 1016.6
20260904072034 74 0.0 0.0 0.00 0.00 0.00 73 1016.8
20260904071030 74 0.0 0.0 0.00 0.00 0.00 72 1016.7
20260904070027 74 0.0 0.0 0.00 0.00 0.00 71 1016.9
20260904065104 74 0.0 0.0 0.00 0.00 0.00 71 1017.1
20260904064020 74 0.0 0.0 0.00 0.00 0.00 70 1017.2
20260904063016 74 0.0 0.0 0.00 0.00 0.00 69 1017.3
20260904062113 74 0.0 0.0 0.00 0.00 0.00 69 1017.5
20260904061110 75 0.0 0.0 0.00 0.00 0.00 69 1017.5
20260904060107 75 0.0 0.0 0.00 0.00 0.00 69 1017.6
20260904055103 75 0.0 0.0 0.00 0.00 0.00 68 1017.7
20260904054100 75 0.0 0.0 0.00 0.00 0.00 68 1017.8
20260904053057 75 0.0 0.0 0.00 0.00 0.00 67 1017.9
20260904052053 75 0.0 0.0 0.00 0.00 0.00 68 1018.0
20260904051050 75 0.0 0.0 0.00 0.00 0.00 67 1018.1
20260904050046 75 0.0 0.0 0.00 0.00 0.00 67 1018.0
20260904045043 76 0.0 0.0 0.00 0.00 0.00 66 1018.1
20260904044040 76 0.0 0.0 0.00 0.00 0.00 66 1018.1
20260904043036 76 0.0 0.0 0.00 0.00 0.00 67 1018.0
20260904042053 76 0.0 0.0 0.00 0.00 0.00 67 1017.9
20260904041029 76 0.0 0.0 0.00 0.00 0.00 66 1017.9
20260904040026 76 0.0 0.0 0.00 0.00 0.00 66 1017.8
20260904035043 77 0.0 0.0 0.00 0.00 0.00 66 1017.9
20260904034018 77 0.0 0.0 0.00 0.00 0.00 65 1017.8
20260904033114 77 0.0 0.0 0.00 0.00 0.00 65 1017.9
20260904032111 77 0.0 0.0 0.00 0.00 0.00 65 1017.9
20260904031107 77 0.0 0.0 0.00 0.00 0.00 65 1018.0
20260904030104 77 0.0 0.0 0.00 0.00 0.00 64 1018.0
20260904025100 78 0.0 0.0 0.00 0.00 0.00 64 1017.9
20260904024057 78 0.0 0.0 0.00 0.00 0.00 64 1017.9
20260904023053 79 0.0 0.0 0.00 0.00 0.00 63 1017.9
20260904022050 79 0.0 0.0 0.00 0.00 0.00 63 1017.9
20260904021046 79 0.0 0.0 0.00 0.00 0.00 62 1018.0
20260904020043 79 0.0 0.0 0.00 0.00 0.00 62 1018.1
20260904015039 80 0.0 0.0 0.00 0.00 0.00 61 1018.0
20260904014036 80 0.0 0.0 0.00 0.00 0.00 61 1017.7
20260904013033 80 0.0 0.0 0.00 0.00 0.00 60 1017.7
20260904012029 81 0.0 0.0 0.00 0.00 0.00 60 1017.6
20260904011026 82 0.0 0.0 0.00 0.00 0.00 57 1017.5
20260904010043 82 0.0 0.0 0.00 0.00 0.00 56 1017.3
20260904005019 83 0.0 0.0 0.00 0.00 0.00 55 1017.2
20260904004016 83 0.0 0.0 0.00 0.00 0.00 55 1017.1
20260904003112 84 0.0 0.0 0.00 0.00 0.00 54 1017.0
20260904002109 85 0.0 0.0 0.00 0.00 0.00 55 1016.8
20260904001106 85 0.0 0.0 0.00 0.00 0.00 50 1016.7
20260903235119 86 0.0 0.0 0.00 0.00 0.00 50 1016.5